GW3736 Weather Reports


time (UTC)temp
F
wind
direction
speed
knots
gust
knots
rain 1hr
in
rain 24hr
in
rain mn
in
humidity
%
barometer
mb
20260906220519 75 223 1.7 5.2 0.00 0.00 0.00 60 1015.1
20260906215535 75 160 0.9 2.6 0.00 0.00 0.00 58 1015.1
20260906214532 75 164 0.9 3.5 0.00 0.00 0.00 58 1015.0
20260906213529 75 135 2.6 7.8 0.00 0.00 0.00 57 1015.1
20260906212525 75 178 1.7 5.2 0.00 0.00 0.00 57 1015.2
20260906211542 75 158 1.7 5.2 0.00 0.00 0.00 56 1015.2
20260906210519 75 156 0.9 5.2 0.00 0.00 0.00 57 1015.2
20260906205516 75 176 1.7 3.5 0.00 0.00 0.00 57 1015.2
20260906204533 75 152 1.7 3.5 0.00 0.00 0.00 56 1015.1
20260906203530 75 144 1.7 6.1 0.00 0.00 0.00 56 1015.0
20260906202527 76 157 1.7 6.1 0.00 0.00 0.00 56 1015.1
20260906201524 76 207 1.7 6.1 0.00 0.00 0.00 56 1015.0
20260906200521 76 197 0.9 1.7 0.00 0.00 0.00 57 1015.0
20260906195538 76 173 1.7 6.1 0.00 0.00 0.00 56 1014.9
20260906194515 76 137 2.6 7.8 0.00 0.00 0.00 57 1015.0
20260906193532 76 133 2.6 7.0 0.00 0.00 0.00 56 1015.2
20260906192549 76 151 2.6 6.1 0.00 0.00 0.00 55 1015.2
20260906191526 76 174 1.7 5.2 0.00 0.00 0.00 55 1015.2
20260906190543 76 148 1.7 6.1 0.00 0.00 0.00 55 1015.2
20260906185540 76 193 1.7 6.1 0.00 0.00 0.00 56 1015.3
20260906184517 76 142 2.6 6.1 0.00 0.00 0.00 55 1015.5
20260906183534 76 145 2.6 7.8 0.00 0.00 0.00 55 1015.4
20260906182531 76 147 2.6 7.8 0.00 0.00 0.00 55 1015.5
20260906181548 76 150 2.6 7.8 0.00 0.00 0.00 56 1015.5
20260906180525 76 159 2.6 7.8 0.00 0.00 0.00 55 1015.7
20260906175522 76 150 2.6 8.7 0.00 0.00 0.00 56 1015.7
20260906174539 75 187 2.6 7.0 0.00 0.00 0.00 56 1015.8
20260906173516 76 205 0.9 3.5 0.00 0.00 0.00 58 1015.9
20260906172533 75 175 1.7 6.1 0.00 0.00 0.00 58 1015.9
20260906171530 75 206 3.5 8.7 0.00 0.00 0.00 59 1015.9
20260906170526 76 215 2.6 7.0 0.00 0.00 0.00 60 1016.2
20260906165545 75 153 2.6 7.8 0.00 0.00 0.00 61 1016.1
20260906164540 75 151 2.6 7.0 0.00 0.00 0.00 61 1016.1
20260906163517 75 167 1.7 8.7 0.00 0.00 0.00 64 1016.0
20260906162614 75 179 2.6 7.0 0.00 0.00 0.00 65 1016.1
20260906161531 75 163 0.9 3.5 0.00 0.00 0.00 66 1016.1
20260906160528 74 173 1.7 6.1 0.00 0.00 0.00 66 1016.1
20260906155525 74 186 1.7 3.5 0.00 0.00 0.00 68 1016.0
20260906154602 74 199 1.7 5.2 0.00 0.00 0.00 69 1016.0
20260906153519 73 169 1.7 6.1 0.00 0.00 0.00 71 1016.0
20260906152536 73 153 2.6 7.0 0.00 0.00 0.00 71 1015.8
20260906151533 73 198 1.7 5.2 0.00 0.00 0.00 72 1015.6
20260906150529 72 178 1.7 5.2 0.00 0.00 0.00 72 1015.6
20260906145526 72 182 2.6 6.1 0.00 0.00 0.00 74 1015.7
20260906144523 71 209 1.7 6.1 0.00 0.00 0.00 75 1015.6
20260906143520 71 200 1.7 5.2 0.00 0.00 0.00 77 1015.7
20260906142517 71 206 1.7 6.1 0.00 0.00 0.00 79 1015.6
20260906141554 70 221 0.9 5.2 0.00 0.00 0.00 80 1015.3
20260906140531 70 217 1.7 5.2 0.00 0.00 0.00 81 1015.4
20260906135528 69 202 1.7 7.0 0.00 0.00 0.00 82 1015.4
20260906134524 69 198 1.7 7.8 0.00 0.00 0.00 84 1015.4
20260906133521 68 194 0.9 3.5 0.00 0.00 0.00 85 1015.3
20260906132519 67 188 0.9 3.5 0.00 0.00 0.00 86 1015.2
20260906131515 67 187 0.9 2.6 0.00 0.00 0.00 87 1015.2
20260906130532 66 195 0.9 3.5 0.00 0.00 0.00 87 1015.3
20260906125529 66 189 0.9 2.6 0.00 0.00 0.00 87 1015.3
20260906124546 65 187 0.9 3.5 0.00 0.00 0.00 87 1015.3
20260906123523 64 188 0.9 3.5 0.00 0.00 0.00 87 1015.2
20260906122520 64 197 0.0 1.7 0.00 0.00 0.00 87 1015.1
20260906121517 64 183 0.9 2.6 0.00 0.00 0.00 87 1015.0
20260906120534 63 188 0.9 2.6 0.00 0.00 0.00 87 1015.0
20260906115531 63 194 0.9 2.6 0.00 0.00 0.00 87 1014.8
20260906114528 63 199 0.9 2.6 0.00 0.00 0.00 87 1014.6
20260906113525 62 195 0.9 6.1 0.00 0.00 0.00 87 1014.4
20260906112522 62 181 0.0 2.6 0.00 0.00 0.00 87 1014.5
20260906111519 62 200 0.0 1.7 0.00 0.00 0.00 86 1014.4
20260906110515 61 204 0.9 3.5 0.00 0.00 0.00 86 1014.3
20260906105553 61 201 0.0 1.7 0.00 0.00 0.00 86 1014.1
20260906104610 61 200 0.9 1.7 0.00 0.00 0.00 86 1014.0
20260906103526 61 200 0.0 1.7 0.00 0.00 0.00 85 1014.1
20260906102625 61 200 0.9 1.7 0.00 0.00 0.00 85 1013.9
20260906101520 61 200 0.9 2.6 0.00 0.00 0.00 85 1014.0
20260906100517 60 200 0.9 1.7 0.00 0.00 0.00 85 1014.0
20260906095534 60 199 0.9 2.6 0.00 0.00 0.00 85 1014.0
20260906094551 60 198 0.9 1.7 0.00 0.00 0.00 85 1013.9
20260906093528 61 199 0.9 2.6 0.00 0.00 0.00 85 1013.9
20260906092525 61 201 1.7 3.5 0.00 0.00 0.00 85 1013.8
20260906091522 61 200 0.9 1.7 0.00 0.00 0.00 84 1013.8
20260906090519 61 200 0.9 1.7 0.00 0.00 0.00 84 1013.8
20260906085516 61 199 0.9 1.7 0.00 0.00 0.00 84 1013.7
20260906084533 62 198 0.9 2.6 0.00 0.00 0.00 83 1013.7
20260906083530 63 195 0.9 1.7 0.00 0.00 0.00 84 1013.7
20260906082527 64 198 0.9 2.6 0.00 0.00 0.00 84 1013.7
20260906081524 64 197 0.9 3.5 0.00 0.00 0.00 84 1013.7
20260906080541 64 195 0.9 2.6 0.00 0.00 0.00 84 1013.6
20260906075517 64 193 0.9 5.2 0.00 0.00 0.00 84 1013.5
20260906074534 64 191 0.9 1.7 0.00 0.00 0.00 84 1013.6
20260906073531 64 195 0.9 5.2 0.00 0.00 0.00 84 1013.4
20260906072528 64 191 0.9 3.5 0.00 0.00 0.00 84 1013.3
20260906071525 63 200 0.9 3.5 0.00 0.00 0.00 84 1013.2
20260906070522 63 190 0.9 3.5 0.00 0.00 0.00 84 1013.3
20260906065519 63 196 0.0 1.7 0.00 0.00 0.00 83 1013.3
20260906064536 63 202 0.9 3.5 0.00 0.00 0.00 83 1013.3
20260906063533 62 201 0.0 2.6 0.00 0.00 0.00 82 1013.3
20260906062530 62 197 0.9 2.6 0.00 0.00 0.00 82 1013.3
20260906061548 62 193 0.9 2.6 0.00 0.00 0.00 82 1013.4
20260906060523 62 195 0.9 1.7 0.00 0.00 0.00 81 1013.3
20260906055520 62 200 0.9 2.6 0.00 0.00 0.00 80 1013.3
20260906054517 62 194 0.9 2.6 0.00 0.00 0.00 80 1013.3
20260906053534 62 196 0.9 2.6 0.00 0.00 0.00 79 1013.4
20260906052531 62 198 1.7 3.5 0.00 0.00 0.00 79 1013.5
20260906051528 62 199 1.7 3.5 0.00 0.00 0.00 79 1013.5
20260906050545 62 196 0.9 3.5 0.00 0.00 0.00 78 1013.2
20260906045541 62 194 0.9 1.7 0.00 0.00 0.00 78 1013.1
20260906044518 63 197 1.7 5.2 0.00 0.00 0.00 77 1013.0
20260906043515 63 191 0.9 2.6 0.00 0.00 0.00 77 1013.2
20260906042532 63 195 0.9 2.6 0.00 0.00 0.00 77 1013.1
20260906041529 63 190 0.9 1.7 0.00 0.00 0.00 76 1013.0
20260906040547 63 195 0.9 2.6 0.00 0.00 0.00 76 1013.1
20260906035523 63 198 0.9 2.6 0.00 0.00 0.00 76 1013.2
20260906034519 64 202 1.7 5.2 0.00 0.00 0.00 75 1013.2
20260906033537 64 207 1.7 2.6 0.00 0.00 0.00 75 1013.0
20260906032533 64 201 0.9 1.7 0.00 0.00 0.00 74 1012.8
20260906031531 64 216 0.9 1.7 0.00 0.00 0.00 74 1012.8
20260906030527 65 280 1.7 5.2 0.00 0.00 0.00 74 1013.0
20260906025524 65 320 1.7 3.5 0.00 0.00 0.00 74 1013.0
20260906024521 65 322 0.9 3.5 0.00 0.00 0.00 73 1013.0
20260906023538 66 324 1.7 5.2 0.00 0.00 0.00 73 1013.1
20260906022535 66 333 0.9 2.6 0.00 0.00 0.00 73 1013.0
20260906021530 66 330 1.7 6.1 0.00 0.00 0.00 72 1013.1
20260906020525 67 331 1.7 5.2 0.00 0.00 0.00 71 1013.0
20260906015520 67 353 0.9 3.5 0.00 0.00 0.00 71 1013.0
20260906014517 67 352 2.6 7.0 0.00 0.00 0.00 71 1013.1
20260906013534 67 328 1.7 5.2 0.00 0.00 0.00 71 1012.9
20260906012532 68 327 0.9 3.5 0.00 0.00 0.00 70 1012.8
20260906011526 68 3 0.9 2.6 0.00 0.00 0.00 70 1012.5
20260906010522 68 353 0.9 2.6 0.00 0.00 0.00 70 1012.5
20260906005538 69 358 1.7 5.2 0.00 0.00 0.00 69 1012.5
20260906004515 69 358 1.7 6.1 0.00 0.00 0.00 69 1012.5
20260906003532 69 358 1.7 5.2 0.00 0.00 0.00 68 1012.3
20260906002529 70 351 1.7 6.1 0.00 0.00 0.00 68 1012.0
20260906001525 70 357 1.7 7.0 0.00 0.00 0.00 67 1012.0
20260906000539 71 7 1.7 5.2 0.00 0.00 0.00 66 1011.8
20260905235533 71 349 1.7 7.0 0.00 0.00 0.00 64 1012.0
20260905234551 72 359 1.7 5.2 0.00 0.00 0.00 65 1011.9
20260905233527 72 1 1.7 5.2 0.00 0.00 0.00 64 1012.1
20260905232524 73 3 0.9 5.2 0.00 0.00 0.00 63 1012.0
20260905231520 73 355 1.7 5.2 0.00 0.00 0.00 62 1012.0
20260905230515 73 357 2.6 7.8 0.00 0.00 0.00 60 1011.8
20260905225531 74 12 2.6 8.7 0.00 0.00 0.00 60 1011.9
20260905224527 74 19 1.7 7.0 0.00 0.00 0.00 60 1011.6
20260905223525 75 19 2.6 8.7 0.00 0.00 0.00 59 1011.6
20260905222521 75 13 2.6 7.0 0.00 0.00 0.00 60 1011.5
20260905221518 75 17 1.7 7.8 0.00 0.00 0.00 60 1011.3